Flag for United Kingdom Weather past 2 weeks in Newport, Wales, United Kingdom

Now
46 °F

Clear.


Feels Like: 46 °F
Forecast: 43 / 64 °F
Wind: No wind

Location: Bristol / Lulsgate

Current Time: Sep 22, 2014 at 5:38:01 AM

Latest Report: Sep 22, 2014 at 5:20 AM


Visibility: 5 mi

Pressure: 30.33 "Hg

Humidity: 93%

Dew point: 45 °F

Location of NewportLocation

Historic Weather in Newport — Graph

°F

Newport temperature yesterday

Maximum temperature yesterday: 63 °F (at 1:50 PM)
Minimum temperature yesterday: 46 °F (at 11:50 PM)
Average temperature yesterday: 56 °F

Past Weeks' High & Low Weather Summary

 TemperatureHumidityPressure
High73 °F (Sep 18, 2:50 PM)100% (Sep 10, 5:20 AM)30.36 "Hg (Sep 10, 5:20 AM)
Low45 °F (Sep 22, 3:20 AM)52% (Sep 8, 3:20 PM)29.77 "Hg (Sep 18, 5:50 AM)
Average59 °F82%30.08 "Hg
* Reported Sep 7 4:20 AM — Sep 22 4:20 AM, Newport, Weather by CustomWeather, © 2014

Note: Actual official high and low records may vary slightly from our data, if they occured in-between our weather recording intervals... More about our weather records

Advertising

Newport weather history for previous 24 hours

 ConditionsComfort  
Time TempWeatherWind HumidityBarometerVisibility
4:20 AM
Sep 22
45 °FClear.5 mph93%30.33 "Hg5 mi
3:50 AM46 °FClear.3 mph93%30.33 "Hg5 mi
3:20 AM45 °FClear.5 mph87%30.33 "Hg5 mi
2:50 AM46 °FClear.5 mph87%30.33 "Hg5 mi
2:20 AM48 °FClear.5 mph87%30.36 "Hg10 mi
1:50 AM46 °FClear.6 mph87%30.36 "Hg10 mi
12:50 AM52 °FClear.6 mph77%30.33 "Hg10 mi
12:20 AM46 °FClear.5 mph87%30.33 "Hg10 mi
11:50 PM
Sep 21
46 °FClear.6 mph87%30.33 "Hg10 mi
11:20 PM48 °FClear.5 mph82%30.33 "Hg10 mi
10:50 PM50 °FClear.3 mph82%30.33 "Hg10 mi
10:20 PM54 °FClear.7 mph77%30.33 "Hg10 mi
9:20 PM55 °FClear.6 mph72%30.33 "Hg10 mi
8:50 PM55 °FClear.6 mph72%30.33 "Hg10 mi
8:20 PM55 °FPassing clouds.6 mph72%30.33 "HgN/A
7:20 PM57 °FPassing clouds.5 mph67%30.30 "HgN/A
6:50 PM59 °FScattered clouds.7 mph68%30.30 "HgN/A
6:20 PM59 °FScattered clouds.6 mph68%30.30 "HgN/A
5:50 PM61 °FScattered clouds.8 mph63%30.30 "HgN/A
5:20 PM61 °FScattered clouds.8 mph63%30.30 "HgN/A
4:50 PM61 °FPartly sunny.7 mph63%30.30 "HgN/A
4:20 PM63 °FScattered clouds.8 mph59%30.30 "HgN/A
3:20 PM63 °FScattered clouds.9 mph59%30.30 "HgN/A
2:50 PM61 °FScattered clouds.12 mph63%30.30 "HgN/A
2:20 PM61 °FPartly sunny.10 mph63%30.30 "HgN/A
1:50 PM63 °FScattered clouds.13 mph59%30.30 "HgN/A
1:20 PM61 °FScattered clouds.10 mph63%30.30 "HgN/A
12:50 PM61 °FScattered clouds.12 mph63%30.27 "HgN/A
12:20 PM61 °FPassing clouds.10 mph68%30.27 "HgN/A
11:50 AM59 °FPassing clouds.10 mph72%30.27 "HgN/A
11:20 AM57 °FPassing clouds.9 mph72%30.27 "HgN/A
10:50 AM57 °FPassing clouds.12 mph77%30.27 "HgN/A
10:20 AM55 °FPassing clouds.10 mph82%30.27 "HgN/A
9:50 AM55 °FPassing clouds.10 mph82%30.27 "Hg6 mi
9:20 AM54 °FPassing clouds.9 mph88%30.27 "Hg5 mi
8:50 AM52 °FPassing clouds.13 mph94%30.24 "Hg4 mi
8:20 AM52 °FPassing clouds.12 mph88%30.24 "Hg4 mi
7:50 AM50 °FHaze.13 mph94%30.24 "Hg3 mi
7:20 AM52 °FHaze.13 mph94%30.24 "Hg3 mi
6:50 AM52 °FPassing clouds.14 mph94%30.21 "Hg3 mi
6:20 AM52 °FPassing clouds.13 mph94%30.21 "Hg3 mi
5:50 AM52 °FPassing clouds.10 mph94%30.21 "Hg4 mi
5:20 AM54 °FPassing clouds.10 mph88%30.21 "Hg4 mi
Weather by CustomWeather, © 2014

See weather overviewHow to use our weather pages